Retour au catalogue

STARLINK-11079

ActifCommunicationsVLEO
NORAD 58708·PAYLOAD·🇺🇸 United States

Lancé Jan 3, 2024 depuis Vandenberg Space Force Base

Loading…

Prochains Passages (prochaines 24 heures)

TLE

FraisSource: CelesTrak SupGP

Époque: Sep 14, 2026, 14:12 UTC

1 58708C 24002D   26257.59215278 -.00019634  00000+0 -16175-3 0  2571
2 58708  53.1572  62.7347 0001080  83.9012  53.9132 15.69716763    19

Suivez STARLINK-11079 en temps réel avec AllMySat

Download on the App Store